Date String (YYYY-MM-DD hh:mm:ss) UTC,Instrument flags,absolute air pressure of the measurement (hPa),sample flow rate (lpm),inlet stack bypass flow (lpm),air temperature of the measurement (°C),ambient temperature measured by the external sensor (°C),aerosol sample conditioner tube jacket temperature (°C),OPC LED temperature (°C),internal box temperature (°C),relative humidity of the measurement (%),span deviation,mass concentration of particles derived from Lorenz-Mie calculation of OPC scattering (μg/m³),mass concentration of particles derived from Lorenz-Mie calculation of OPC scattering (μg/m³),mass concentration of particles derived from Lorenz-Mie calculation of OPC scattering (μg/m³)
DateTimeUTC,F1_M11,P_M11,Q1_M11,Q2_M11,T1_M11,T2_M11,T3_M11,T4_M11,T5_M11,U1_M11,ZSPAN_M11,X0_M11,X2_M11,X1_M11
2024-01-10 06:00:00,SystemResetWarning,0812.4,5.00,000.00,018.7,017.6,000.0,027.2,020.0,10.9,0000.0,0000.76,0000.44,0000.24
2024-01-10 06:01:00,SystemResetWarning,0812.4,5.00,000.00,018.7,017.5,000.0,027.2,020.0,10.9,0000.0,0000.73,0000.42,0000.24
2024-01-10 06:02:00,SystemResetWarning,0812.5,4.99,000.00,018.7,017.4,000.0,027.2,020.0,11.0,0000.0,0000.84,0000.45,0000.25
2024-01-10 06:03:00,SystemResetWarning,0812.5,4.99,000.00,018.7,017.4,000.0,027.2,020.0,11.0,0000.0,0000.85,0000.44,0000.25
2024-01-10 06:04:00,SystemResetWarning,0812.4,4.99,000.00,018.7,017.4,000.0,027.2,020.0,11.0,0000.0,0000.92,0000.47,0000.24
2024-01-10 06:05:00,SystemResetWarning,0812.5,5.00,000.00,018.7,017.4,000.0,027.2,020.0,11.0,0000.0,0000.97,0000.49,0000.25
2024-01-10 06:06:00,SystemResetWarning,0812.4,5.00,000.00,018.7,017.3,000.0,027.2,020.0,11.0,0000.0,0001.12,0000.49,0000.25
2024-01-10 06:07:00,SystemResetWarning,0812.4,5.01,000.00,018.7,017.3,000.0,027.2,020.0,11.1,0000.0,0001.81,0000.49,0000.25
2024-01-10 06:08:00,SystemResetWarning,0812.3,5.01,000.00,018.7,017.3,000.0,027.2,020.0,11.2,0000.0,0001.82,0000.47,0000.26
2024-01-10 06:09:00,SystemResetWarning,0812.3,5.01,000.00,018.7,017.3,000.0,027.2,020.0,11.2,0000.0,0001.83,0000.47,0000.26
2024-01-10 06:10:00,SystemResetWarning,0812.3,5.00,000.00,018.7,017.3,000.0,027.2,020.0,11.2,0000.0,0001.83,0000.47,0000.26
2024-01-10 06:11:00,SystemResetWarning,0812.2,4.99,000.00,018.7,017.3,000.0,027.2,020.0,11.2,0000.0,0002.26,0000.44,0000.26
2024-01-10 06:12:00,SystemResetWarning,0812.1,4.99,000.00,018.7,017.3,000.0,027.2,020.0,11.1,0000.0,0003.15,0000.44,0000.26
2024-01-10 06:13:00,SystemResetWarning,0812.2,5.00,000.00,018.7,017.3,000.0,027.2,020.0,11.2,0000.0,0003.05,0000.42,0000.26
2024-01-10 06:14:00,SystemResetWarning,0812.3,5.00,000.00,018.6,017.2,000.0,027.2,020.0,11.3,0000.0,0003.16,0000.43,0000.26
2024-01-10 06:15:00,SystemResetWarning,0812.2,5.00,000.00,018.6,017.2,000.0,027.2,020.0,11.3,0000.0,0003.11,0000.40,0000.25
2024-01-10 06:16:00,SystemResetWarning,0812.2,5.01,000.00,018.7,017.2,000.0,027.2,020.0,11.3,0000.0,0003.03,0000.37,0000.25
2024-01-10 06:17:00,SystemResetWarning,0812.2,5.01,000.00,018.6,017.2,000.0,027.2,020.0,11.3,0000.0,0003.17,0000.39,0000.25
2024-01-10 06:18:00,SystemResetWarning,0812.2,4.99,000.00,018.6,017.2,000.0,027.2,020.0,11.3,0000.0,0003.63,0000.38,0000.26
2024-01-10 06:19:00,SystemResetWarning,0812.1,5.00,000.00,018.6,017.2,000.0,027.2,020.0,11.3,0000.0,0003.49,0000.39,0000.25
2024-01-10 06:20:00,SystemResetWarning,0812.1,5.00,000.00,018.6,017.2,000.0,027.2,020.0,11.2,0000.0,0003.47,0000.38,0000.25
2024-01-10 06:21:00,SystemResetWarning,0812.1,5.00,000.00,018.6,017.2,000.0,027.2,020.0,11.2,0000.0,0003.45,0000.37,0000.25
2024-01-10 06:22:00,SystemResetWarning,0812.2,4.99,000.00,018.6,017.2,000.0,027.2,020.0,11.2,0000.0,0003.35,0000.39,0000.25
2024-01-10 06:23:00,SystemResetWarning,0812.2,5.00,000.00,018.6,017.2,000.0,027.2,020.0,11.2,0000.0,0002.17,0000.38,0000.25
2024-01-10 06:24:00,SystemResetWarning,0812.1,4.99,000.00,018.6,017.1,000.0,027.2,020.0,11.3,0000.0,0002.14,0000.37,0000.25
2024-01-10 06:25:00,SystemResetWarning,0812.1,5.00,000.00,018.6,017.1,000.0,027.2,020.0,11.3,0000.0,0002.06,0000.35,0000.24
2024-01-10 06:26:00,SystemResetWarning,0812.1,5.00,000.00,018.6,017.1,000.0,027.2,020.0,11.3,0000.0,0002.55,0000.35,0000.24
2024-01-10 06:27:00,SystemResetWarning,0812.1,5.01,000.00,018.6,017.1,000.0,027.2,020.0,11.3,0000.0,0002.62,0000.37,0000.24
2024-01-10 06:28:00,SystemResetWarning,0812.1,5.00,000.00,018.6,017.1,000.0,027.2,020.0,11.3,0000.0,0002.39,0000.34,0000.24
2024-01-10 06:29:00,SystemResetWarning,0812.1,5.01,000.00,018.6,017.1,000.0,027.2,020.0,11.2,0000.0,0001.19,0000.33,0000.24
2024-01-10 06:30:00,SystemResetWarning,0812.1,5.01,000.00,018.6,017.1,000.0,027.2,020.0,11.2,0000.0,0001.19,0000.33,0000.24
2024-01-10 06:31:00,SystemResetWarning,0812.1,4.99,000.00,018.6,017.2,000.0,027.2,020.1,11.3,0000.0,0001.18,0000.33,0000.25
2024-01-10 06:32:00,SystemResetWarning,0812.1,5.00,000.00,018.7,017.8,000.0,027.1,020.5,11.3,0000.0,0001.18,0000.33,0000.25
2024-01-10 06:33:00,SystemResetWarning,0812.1,5.00,000.00,018.9,018.7,000.0,027.1,020.7,11.2,0000.0,0001.08,0000.32,0000.25
2024-01-10 06:34:00,SystemResetWarning,0812.1,5.00,000.00,018.9,018.7,000.0,027.1,020.5,11.1,0000.0,0001.10,0000.33,0000.25
2024-01-10 06:35:00,SystemResetWarning,0812.0,4.99,000.00,018.9,018.6,000.0,027.1,020.3,11.0,0000.0,0001.15,0000.36,0000.26
2024-01-10 06:36:00,SystemResetWarning,0812.0,4.99,000.00,018.9,018.4,000.0,027.1,020.1,11.1,0000.0,0001.18,0000.38,0000.27
2024-01-10 06:37:00,SystemResetWarning,0812.0,5.00,000.00,018.8,018.2,000.0,027.1,020.0,11.0,0000.0,0000.64,0000.37,0000.27
2024-01-10 06:38:00,SystemResetWarning,0812.0,5.01,000.00,018.8,018.1,000.0,027.1,020.0,11.0,0000.0,0000.55,0000.36,0000.27
2024-01-10 06:39:00,SystemResetWarning,0811.8,5.00,000.00,018.8,017.9,000.0,027.2,020.0,11.0,0000.0,0000.52,0000.35,0000.27
2024-01-10 06:40:00,SystemResetWarning,0811.8,5.00,000.00,018.8,017.8,000.0,027.2,020.0,11.0,0000.0,0000.52,0000.35,0000.27
2024-01-10 06:41:00,SystemResetWarning,0811.8,5.00,000.00,018.8,017.6,000.0,027.2,020.0,11.0,0000.0,0000.48,0000.34,0000.27
2024-01-10 06:42:00,SystemResetWarning,0811.8,4.99,000.00,018.7,017.5,000.0,027.2,020.0,11.0,0000.0,0000.53,0000.34,0000.26
2024-01-10 06:43:00,SystemResetWarning,0811.9,5.00,000.00,018.7,017.5,000.0,027.2,020.0,11.1,0000.0,0000.64,0000.36,0000.26
2024-01-10 06:44:00,SystemResetWarning,0811.8,5.00,000.00,018.7,017.4,000.0,027.2,020.0,11.2,0000.0,0000.75,0000.39,0000.26
2024-01-10 06:45:00,SystemResetWarning,0811.9,5.00,000.00,018.7,017.4,000.0,027.2,020.0,11.3,0000.0,0000.83,0000.43,0000.26
2024-01-10 06:46:00,SystemResetWarning,0811.9,5.00,000.00,018.7,017.3,000.0,027.2,020.0,11.3,0000.0,0000.79,0000.40,0000.25
2024-01-10 06:47:00,SystemResetWarning,0811.9,5.01,000.00,018.7,017.3,000.0,027.2,020.0,11.3,0000.0,0000.79,0000.40,0000.25
2024-01-10 06:48:00,SystemResetWarning,0811.8,5.01,000.00,018.7,017.3,000.0,027.2,020.0,11.3,0000.0,0000.77,0000.40,0000.25
2024-01-10 06:49:00,SystemResetWarning,0811.8,5.00,000.00,018.7,017.3,000.0,027.2,020.0,11.2,0000.0,0000.76,0000.39,0000.25
2024-01-10 06:50:00,SystemResetWarning,0811.7,4.99,000.00,018.7,017.2,000.0,027.2,020.0,11.2,0000.0,0000.81,0000.41,0000.26
2024-01-10 06:51:00,SystemResetWarning,0811.7,5.00,000.00,018.7,017.2,000.0,027.2,020.0,11.2,0000.0,0001.48,0000.43,0000.27
2024-01-10 06:52:00,SystemResetWarning,0811.7,5.00,000.00,018.7,017.2,000.0,027.2,020.0,11.2,0000.0,0002.15,0000.46,0000.27
2024-01-10 06:53:00,SystemResetWarning,0811.7,5.00,000.00,018.7,017.2,000.0,027.2,020.0,11.3,0000.0,0002.12,0000.46,0000.27
2024-01-10 06:54:00,SystemResetWarning,0811.8,5.00,000.00,018.7,017.2,000.0,027.2,020.0,11.3,0000.0,0002.01,0000.44,0000.27
2024-01-10 06:55:00,SystemResetWarning,0811.7,5.00,000.00,018.7,017.2,000.0,027.2,020.0,11.4,0000.0,0001.94,0000.41,0000.27
2024-01-10 06:56:00,SystemResetWarning,0811.7,5.00,000.00,018.7,017.2,000.0,027.2,020.0,11.4,0000.0,0001.89,0000.40,0000.27
2024-01-10 06:57:00,SystemResetWarning,0811.6,5.00,000.00,018.6,017.2,000.0,027.2,020.0,11.5,0000.0,0001.95,0000.43,0000.27
2024-01-10 06:58:00,SystemResetWarning,0811.6,5.01,000.00,018.6,017.2,000.0,027.2,020.0,11.6,0000.0,0001.96,0000.43,0000.27
2024-01-10 06:59:00,SystemResetWarning,0811.5,5.00,000.00,018.6,017.2,000.0,027.2,020.0,11.8,0000.0,0001.97,0000.43,0000.27
